Weather History for PAQT - September, 2012

Change the Weather History Date:

Wednesday, September 12, 2012

  Actual Average (PAKU) Record (PAKU)
Temperature  
Mean Temperature 37 °F -  
Max Temperature 42 °F 38 °F 55 °F (2010)
Min Temperature 33 °F 30 °F 22 °F (1992)
Degree Days  
Heating Degree Days 28    
Moisture  
Dew Point 37 °F    
Average Humidity 97    
Maximum Humidity 100    
Minimum Humidity 93    
Precipitation  
Precipitation 0.02 in - - ()
Sea Level Pressure  
Sea Level Pressure 29.97 in    
Wind  
Wind Speed 6 mph (NNE)    
Max Wind Speed 8 mph    
Max Gust Speed -    
Visibility 7 miles    
Events Rain    
Averages and records for this station are not official NWS values.
T = Trace of Precipitation, MM = Missing Value Source: NWS Daily Summary

Daily Weather History Graph

Daily Weather History Graph

Search for Another Location

Airport or City:

Trip Planner

Search our weather history database for the weather conditions in past years. The results will help you decide how hot, cold, wet, or windy it might be!

Date:

Astronomy

Sep. 12, 2012 Rise Set
Actual Time 7:06 AM AKDT 8:50 PM AKDT
Civil Twilight 6:00 AM AKDT 9:56 PM AKDT
Nautical Twilight 4:25 AM AKDT 11:28 PM AKDT
Astronomical Twilight Sun does not set 1:27 AM AKDT
Moon 1:44 AM AKDT (9/12) 7:58 PM AKDT (9/12)
Length of Visible Light 15h 55m
Length of Day
13h 43m
Waning Crescent, 12% of the Moon is Illuminated
Sep 12
Waning Crescent
Sep 15
New
Sep 22
First Quarter
Sep 29
Full
Oct 7
Last Quarter

Hourly Weather History & Observations

Time (AKDT) Temp. Windchill Dew Point Humidity Pressure Visibility Wind Dir Wind Speed Gust Speed Precip Events Conditions
12:53 AM 36.0 °F 30.3 °F 35.1 °F 97% 30.06 in 10.0 mi ENE 6.9 mph - N/A   Overcast
1:21 AM 35.6 °F 29.2 °F 33.8 °F 93% 30.05 in 10.0 mi NE 8.1 mph - N/A   Overcast
1:53 AM 36.0 °F 31.1 °F 35.1 °F 97% 30.05 in 10.0 mi NE 5.8 mph - N/A   Overcast
2:53 AM 36.0 °F 29.6 °F 34.0 °F 93% 30.04 in 10.0 mi NE 8.1 mph - N/A   Overcast
3:53 AM 36.0 °F 31.1 °F 34.0 °F 93% 30.04 in 10.0 mi ENE 5.8 mph - N/A   Overcast
4:53 AM 35.1 °F 29.3 °F 34.0 °F 96% 30.03 in 10.0 mi NE 6.9 mph - N/A   Overcast
5:53 AM 35.1 °F 29.3 °F 34.0 °F 96% 30.01 in 10.0 mi NE 6.9 mph - N/A   Overcast
6:18 AM 33.8 °F 29.6 °F 33.8 °F 100% 30.01 in 4.0 mi NE 4.6 mph - N/A   Overcast
6:25 AM 35.6 °F 31.7 °F 35.6 °F 100% 30.01 in 5.0 mi NE 4.6 mph - N/A   Overcast
6:53 AM 35.1 °F 31.0 °F 35.1 °F 100% 30.00 in 10.0 mi NNE 4.6 mph - N/A   Overcast
7:53 AM 36.0 °F 31.1 °F 35.1 °F 97% 29.99 in 10.0 mi North 5.8 mph - N/A   Overcast
8:22 AM 37.4 °F 31.4 °F 35.6 °F 93% 29.99 in 5.0 mi NE 8.1 mph - N/A   Overcast
8:32 AM 35.6 °F 30.7 °F 35.6 °F 100% 29.99 in 3.0 mi ENE 5.8 mph - N/A   Overcast
8:40 AM 35.6 °F 29.9 °F 35.6 °F 100% 29.99 in 2.0 mi ENE 6.9 mph - N/A   Overcast
8:53 AM 36.0 °F 29.6 °F 36.0 °F 100% 29.99 in 2.5 mi NE 8.1 mph - N/A   Overcast
8:58 AM 35.6 °F 29.9 °F 35.6 °F 100% 29.98 in 3.0 mi ENE 6.9 mph - N/A   Overcast
9:53 AM 37.0 °F 31.0 °F 36.0 °F 96% 29.99 in 10.0 mi NE 8.1 mph - N/A   Overcast
10:53 AM 37.9 °F 32.1 °F 37.0 °F 97% 29.98 in 10.0 mi ENE 8.1 mph - N/A   Overcast
11:33 AM 37.4 °F 32.8 °F 37.4 °F 100% 29.97 in 10.0 mi NE 5.8 mph - N/A   Mostly Cloudy
11:53 AM 37.9 °F 33.5 °F 37.0 °F 97% 29.98 in 10.0 mi North 5.8 mph - N/A   Mostly Cloudy
12:11 PM 37.4 °F 32.8 °F 37.4 °F 100% 29.97 in 9.0 mi North 5.8 mph - N/A   Overcast
12:27 PM 37.4 °F 34.9 °F 37.4 °F 100% 29.97 in 2.5 mi North 3.5 mph - N/A   Overcast
12:39 PM 39.2 °F 35.0 °F 37.4 °F 93% 29.97 in 3.0 mi North 5.8 mph - 0.00 in Rain Light Rain
12:48 PM 37.9 °F 33.5 °F 37.9 °F 100% 29.97 in 1.8 mi North 5.8 mph - 0.00 in Rain Light Rain
12:50 PM 37.4 °F 32.8 °F 37.4 °F 100% 29.97 in 2.0 mi North 5.8 mph - N/A Rain Light Rain
1:14 PM 39.2 °F 35.0 °F 37.4 °F 93% 29.96 in 10.0 mi North 5.8 mph - 0.01 in   Overcast
1:53 PM 39.0 °F 33.4 °F 39.0 °F 100% 29.97 in 10.0 mi North 8.1 mph - 0.01 in   Overcast
2:53 PM 39.9 °F 35.8 °F 39.0 °F 97% 29.96 in 8.0 mi North 5.8 mph - 0.00 in   Overcast
3:07 PM 41.0 °F 35.8 °F 39.2 °F 93% 29.95 in 4.0 mi North 8.1 mph - 0.00 in Rain Light Rain
3:32 PM 39.2 °F 35.0 °F 37.4 °F 93% 29.95 in 5.0 mi NNW 5.8 mph - 0.00 in   Overcast
3:53 PM 39.9 °F 35.1 °F 39.0 °F 97% 29.96 in 2.0 mi NNW 6.9 mph - 0.00 in Rain Light Rain
4:03 PM 39.2 °F 35.0 °F 37.4 °F 93% 29.95 in 5.0 mi North 5.8 mph - 0.00 in   Mostly Cloudy
4:53 PM 39.9 °F 35.8 °F 39.0 °F 97% 29.95 in 9.0 mi North 5.8 mph - 0.00 in   Overcast
4:58 PM 39.2 °F 34.2 °F 39.2 °F 100% 29.95 in 2.5 mi North 6.9 mph - N/A   Overcast
5:01 PM 39.2 °F 35.9 °F 39.2 °F 100% 29.95 in 1.8 mi North 4.6 mph - N/A   Overcast
5:04 PM 39.2 °F 37.0 °F 39.2 °F 100% 29.95 in 2.0 mi North 3.5 mph - N/A   Overcast
5:14 PM 39.2 °F 34.2 °F 37.4 °F 93% 29.95 in 10.0 mi NNW 6.9 mph - N/A   Overcast
5:53 PM 39.9 °F 36.7 °F 37.9 °F 93% 29.95 in 9.0 mi NW 4.6 mph - N/A   Overcast
6:02 PM 41.0 °F 36.4 °F 39.2 °F 93% 29.95 in 6.0 mi North 6.9 mph - N/A   Overcast
6:11 PM 39.2 °F 35.0 °F 39.2 °F 100% 29.95 in 4.0 mi North 5.8 mph - N/A   Overcast
6:39 PM 39.2 °F 34.2 °F 37.4 °F 93% 29.95 in 10.0 mi North 6.9 mph - N/A   Overcast
6:46 PM 39.2 °F 35.0 °F 37.4 °F 93% 29.95 in 7.0 mi North 5.8 mph - N/A   Overcast
6:53 PM 39.0 °F 35.7 °F 37.9 °F 96% 29.96 in 6.0 mi North 4.6 mph - N/A   Overcast
7:03 PM 39.2 °F 35.9 °F 37.4 °F 93% 29.95 in 10.0 mi NNW 4.6 mph - N/A   Overcast
7:31 PM 39.2 °F 34.2 °F 37.4 °F 93% 29.95 in 10.0 mi North 6.9 mph - N/A   Overcast
7:53 PM 37.9 °F 33.5 °F 37.0 °F 97% 29.95 in 10.0 mi North 5.8 mph - N/A   Overcast
8:04 PM 37.4 °F 32.8 °F 37.4 °F 100% 29.95 in 10.0 mi North 5.8 mph - N/A   Overcast
8:45 PM 37.4 °F 33.8 °F 37.4 °F 100% 29.95 in 10.0 mi North 4.6 mph - N/A   Overcast
8:53 PM 37.0 °F 34.5 °F 37.0 °F 100% 29.95 in 10.0 mi North 3.5 mph - N/A   Overcast
9:37 PM 37.4 °F 34.9 °F 37.4 °F 100% 29.96 in 10.0 mi North 3.5 mph - N/A   Overcast
9:53 PM 37.0 °F 31.6 °F 37.0 °F 100% 29.96 in 2.0 mi North 6.9 mph - N/A   Overcast
10:00 PM 37.4 °F 31.4 °F 37.4 °F 100% 29.96 in 1.2 mi North 8.1 mph - N/A   Overcast
10:24 PM 37.4 °F 31.4 °F 37.4 °F 100% 29.96 in 3.0 mi North 8.1 mph - N/A   Overcast
10:36 PM 37.4 °F 32.1 °F 37.4 °F 100% 29.96 in 6.0 mi North 6.9 mph - N/A   Overcast
10:53 PM 37.0 °F 31.0 °F 37.0 °F 100% 29.97 in 5.0 mi North 8.1 mph - N/A   Overcast
11:21 PM 35.6 °F 29.2 °F 35.6 °F 100% 29.97 in 2.0 mi North 8.1 mph - 0.01 in   Overcast
11:34 PM 35.6 °F 29.2 °F 35.6 °F 100% 29.97 in 2.0 mi North 8.1 mph - 0.01 in   Overcast
11:45 PM 35.6 °F 30.7 °F 35.6 °F 100% 29.97 in 6.0 mi North 5.8 mph - 0.01 in   Overcast
11:53 PM 36.0 °F 31.1 °F 36.0 °F 100% 29.98 in 10.0 mi North 5.8 mph - 0.01 in   Overcast